Wind_Speed
30 28 27 26 25 24 23 23 24 24 23 21 21 21 22 23 24 25 25 27 29 31 32 32 32 31 31 31 29 28 28 29 27 26 25 26 26 27 28 28 28 28 28
32 30 30 28 27 27 25 25 25 26 25 25 25 26 26 26 27 28 28 30 32 34 35 35 34 34 32 30 29 29 28 27 28 28 28 28 28 29 30 30 30 31 32
33 32 31 31 29 29 27 26 27 27 27 28 29 28 28 28 29 30 31 33 34 35 35 34 33 32 30 29 29 29 29 27 26 27 27 28 30 31 32 33 34 34 35
33 34 33 33 32 31 29 29 29 29 29 31 31 30 30 31 32 33 33 34 35 35 35 33 32 31 29 29 29 30 29 28 27 28 29 30 31 33 34 35 36 38 39
34 35 35 34 34 34 33 31 32 32 32 33 33 33 33 33 34 35 35 35 35 36 34 33 32 31 30 30 29 29 29 28 29 31 32 33 34 35 36 37 39 40 42
33 35 36 36 35 34 33 34 35 33 33 34 35 36 37 36 36 35 36 36 36 36 37 35 33 31 30 29 30 31 31 31 31 33 34 35 36 37 39 41 42 43 44
30 32 34 35 36 35 34 34 34 34 34 35 36 38 38 37 36 37 37 37 38 39 39 36 34 33 32 33 32 32 33 34 35 36 36 38 39 40 42 43 45 46 47
26 28 31 33 34 35 36 35 35 35 35 36 37 38 38 39 40 39 39 38 39 40 41 39 37 35 35 35 35 34 35 36 37 38 39 40 41 43 45 46 48 49 51
26 27 29 31 33 35 36 37 37 38 39 40 41 41 41 43 43 42 42 42 42 43 43 42 39 39 39 38 38 38 38 39 40 41 42 43 44 46 47 49 50 52 54
28 29 31 32 34 36 37 38 39 41 42 43 43 42 43 44 44 45 45 44 46 46 45 45 44 43 42 42 42 41 41 43 43 45 46 47 47 49 50 52 54 56 58
30 31 32 34 36 37 38 39 41 42 43 44 44 45 46 46 47 46 47 48 48 49 48 47 46 46 45 46 46 45 45 45 47 48 49 49 51 52 54 56 57 60 61
32 34 34 35 37 38 38 40 41 42 44 45 46 47 47 47 48 48 49 49 49 49 49 48 48 48 48 48 48 47 46 47 50 52 53 53 55 56 58 59 60 61 62
35 36 37 39 40 41 41 43 44 45 46 46 46 46 46 47 48 49 50 49 50 50 50 50 50 49 50 50 49 48 49 50 53 55 57 57 57 58 59 60 61 62 62
36 37 38 39 40 41 42 43 44 45 45 45 44 45 45 46 46 47 48 49 49 50 51 51 50 51 51 50 49 51 53 54 56 58 59 59 60 60 60 61 62 62 62
34 35 36 38 39 40 40 41 41 42 42 42 42 42 42 42 43 44 45 45 46 48 48 48 49 51 52 52 52 54 56 58 59 60 61 60 60 60 61 61 61 61 60
33 33 34 35 35 36 36 37 37 38 38 39 40 41 41 42 42 42 42 42 44 46 47 48 49 50 52 53 55 57 58 59 60 61 62 62 61 60 60 59 57 56 54
29 30 30 31 32 32 33 33 34 34 35 36 37 38 38 39 40 39 40 42 43 45 46 47 49 51 53 56 57 58 59 60 61 61 61 60 59 58 56 54 51 49 46
26 27 28 28 29 30 30 31 32 32 33 34 35 36 36 37 38 39 40 42 43 45 47 48 50 52 54 55 57 57 58 59 59 58 57 57 55 53 50 46 44 41 38
24 25 26 26 26 27 27 28 29 30 31 32 33 34 35 37 38 39 39 41 42 44 45 47 49 50 51 53 54 55 55 54 53 52 50 48 45 42 39 36 34 31 30
20 21 22 22 22 23 25 26 27 27 28 29 29 30 31 33 34 35 36 38 40 42 44 45 47 48 49 49 49 49 47 45 43 41 39 36 33 30 29 27 25 24 23
17 18 19 19 20 21 22 23 23 24 25 25 26 27 28 30 31 33 34 36 38 39 41 43 44 44 44 43 41 39 37 35 32 29 26 24 22 21 19 18 17 17 16
15 15 16 17 18 19 19 20 21 22 22 23 24 24 26 27 28 29 31 32 34 35 36 37 36 35 34 32 30 27 24 21 19 17 15 14 13 12 11 11 10 10 9
12 13 14 16 17 17 18 18 19 19 20 20 20 22 23 24 25 27 28 29 31 31 31 29 27 25 23 20 18 15 13 11 9 7 6 6 5 5 5 5 5 5 6
11 12 13 14 15 15 16 16 17 17 18 18 18 19 21 22 23 25 26 26 26 26 24 23 20 17 14 12 10 8 7 5 4 4 4 5 5 5 5 5 6 6 7
10 11 12 12 13 14 14 14 14 14 15 16 17 18 19 20 21 22 22 22 21 20 18 16 14 12 9 8 7 6 7 7 7 7 7 7 7 7 6 6 6 6 7
10 11 11 12 12 13 13 13 13 13 14 14 15 16 17 18 19 19 18 18 17 16 14 12 11 9 8 8 8 9 9 10 10 10 9 8 7 7 7 6 7 7 8
Wind_Direction
222 228 234 236 233 233 234 228 229 230 232 235 239 241 244 247 252 257 264 270 272 271 271 271 273 274 274 277 277 277 276 274 272 273 275 276 276 276 277 278 278 279 280
226 232 236 239 238 237 240 238 237 235 234 236 239 242 246 252 257 260 263 268 272 272 270 273 273 274 273 275 276 277 278 276 274 274 275 273 274 276 277 277 278 278 279
230 234 238 239 240 242 241 240 240 239 238 239 243 246 249 254 257 260 262 268 272 272 270 271 276 277 276 280 280 279 279 274 275 275 275 275 275 276 276 277 278 279 280
233 236 240 241 241 242 244 243 240 242 242 242 244 248 252 254 258 260 263 268 273 274 276 277 282 282 282 284 282 280 278 274 274 276 276 276 276 276 276 276 277 278 279
234 237 239 240 242 243 243 244 244 242 242 244 247 249 253 255 258 263 268 273 277 281 284 288 289 290 290 285 282 279 279 276 275 276 276 276 277 276 276 277 278 278 278
237 238 238 240 243 244 245 245 244 245 249 251 254 256 258 261 264 267 272 274 279 287 290 291 292 292 293 291 285 280 279 278 277 277 276 276 276 275 276 277 277 278 278
237 236 235 238 241 243 245 247 249 251 255 257 260 261 262 267 270 273 275 277 282 286 287 289 292 290 289 289 288 283 279 278 278 278 277 277 276 276 277 277 278 278 279
234 235 236 237 240 243 246 249 252 255 260 264 265 267 270 273 274 275 277 280 283 283 286 289 291 289 288 287 286 283 280 279 279 278 277 277 278 278 277 278 279 280 281
236 236 238 241 243 245 249 252 255 258 262 265 266 269 272 274 277 279 280 280 282 285 288 291 289 288 288 287 286 282 280 279 278 278 277 278 279 278 278 279 280 281 281
239 240 243 246 248 249 251 254 257 261 265 269 270 272 274 276 281 283 283 283 285 288 289 288 287 286 285 285 284 282 281 279 278 277 277 278 279 279 280 280 280 280 281
242 243 246 248 250 251 253 257 260 264 269 272 275 277 279 279 281 283 283 284 285 286 286 286 284 284 283 283 281 279 279 278 277 276 276 276 277 278 279 280 279 280 281
245 247 248 251 253 256 258 261 264 267 271 274 276 277 278 280 281 282 281 282 282 282 282 282 281 280 281 280 278 278 277 279 277 276 276 277 278 278 278 279 279 280 281
250 252 255 257 259 261 264 266 268 270 272 275 277 277 278 279 280 279 280 280 279 279 279 279 278 278 278 277 277 275 274 277 279 279 278 279 278 278 279 279 280 282 283
257 258 260 261 263 264 266 268 269 271 273 274 275 276 278 278 278 277 277 276 276 275 275 276 275 274 274 276 275 275 276 278 278 278 277 278 279 279 279 280 282 283 284
262 263 264 265 266 267 268 270 272 273 274 274 274 275 277 277 277 276 275 274 274 273 274 274 274 273 275 276 276 276 277 278 278 278 278 279 279 280 281 282 283 285 286
264 265 267 267 268 269 270 271 272 272 273 274 274 274 275 275 273 272 271 270 271 273 273 273 274 276 277 277 278 279 280 280 280 280 280 280 282 283 284 285 286 286 287
266 268 267 268 269 269 269 270 270 271 271 271 272 272 271 269 268 268 268 270 273 275 276 278 279 281 281 281 281 282 282 282 283 283 283 283 283 284 285 286 287 288 289
268 266 267 268 269 269 269 270 270 271 271 271 272 271 270 272 273 274 276 278 280 281 282 283 283 283 284 284 285 285 285 285 285 285 285 285 286 287 287 288 289 290 290
266 265 266 268 268 269 270 271 271 273 273 273 274 274 277 279 281 283 285 287 288 288 289 289 289 289 288 288 287 287 287 287 287 287 287 287 288 288 289 289 289 290 290
264 266 269 271 271 272 273 274 274 276 277 278 280 283 285 287 288 290 291 292 292 293 293 293 293 292 291 290 290 289 290 290 290 290 289 290 290 290 288 288 287 288 289
266 269 271 274 276 276 276 278 279 281 283 285 287 289 291 292 293 294 296 297 298 299 299 298 297 296 295 294 294 293 293 293 293 293 293 292 291 290 288 289 290 292 294
269 270 273 275 276 277 279 282 284 287 290 292 294 294 296 298 300 302 304 306 306 306 306 305 304 302 302 301 300 299 298 298 299 299 299 298 298 297 296 297 298 300 303
280 281 281 281 281 283 285 288 291 294 296 297 298 300 302 304 305 307 309 310 312 313 313 312 312 312 312 313 313 312 311 313 316 318 317 319 321 326 332 332 335 339 341
290 291 291 289 289 290 293 294 295 297 298 299 303 307 309 310 312 315 316 316 317 319 320 320 320 322 325 329 332 337 346 0 19 31 34 34 29 30 27 23 19 15 6
299 299 298 297 297 298 298 297 297 302 304 306 309 312 315 317 320 321 323 324 325 325 328 332 336 341 348 356 8 28 47 60 67 68 66 59 53 53 50 44 37 26 16
306 304 302 302 302 301 301 301 302 305 307 310 314 318 320 323 326 328 332 335 337 339 343 351 3 16 28 43 57 65 69 72 72 71 69 67 64 60 56 53 48 41 32
Height
5856 5859 5862 5864 5866 5867 5869 5870 5871 5872 5873 5874 5875 5875 5875 5875 5876 5875 5875 5874 5872 5871 5870 5869 5868 5866 5865 5865 5863 5861 5860 5859 5858 5858 5857 5857 5856 5855 5854 5853 5852 5851 5849
5851 5855 5857 5860 5862 5864 5865 5866 5866 5867 5868 5869 5870 5870 5870 5870 5870 5870 5869 5867 5865 5864 5862 5861 5861 5859 5858 5857 5856 5855 5853 5852 5852 5851 5850 5849 5849 5848 5847 5846 5845 5844 5842
5847 5850 5853 5855 5857 5859 5860 5861 5862 5863 5864 5864 5864 5864 5864 5864 5864 5863 5862 5860 5859 5857 5855 5854 5853 5852 5851 5849 5848 5847 5846 5846 5845 5844 5843 5843 5842 5842 5841 5839 5838 5836 5835
5842 5845 5848 5850 5852 5854 5855 5856 5857 5858 5858 5858 5858 5858 5858 5858 5857 5854 5853 5853 5852 5850 5849 5847 5845 5844 5843 5841 5841 5839 5839 5838 5838 5838 5837 5837 5835 5834 5833 5831 5830 5828 5826
5836 5839 5842 5844 5846 5848 5849 5850 5851 5852 5852 5852 5852 5852 5852 5851 5849 5848 5847 5846 5845 5843 5841 5839 5838 5837 5835 5835 5833 5832 5832 5832 5831 5831 5830 5829 5827 5826 5824 5823 5821 5819 5817
5830 5833 5836 5838 5840 5842 5843 5844 5845 5845 5846 5846 5846 5845 5845 5843 5841 5841 5840 5839 5838 5835 5834 5833 5831 5830 5829 5828 5827 5826 5826 5825 5824 5823 5821 5820 5819 5817 5815 5813 5811 5809 5806
5823 5826 5829 5831 5834 5836 5837 5838 5839 5839 5839 5840 5839 5838 5838 5836 5834 5834 5833 5832 5830 5828 5827 5826 5825 5823 5822 5821 5820 5819 5818 5816 5815 5814 5812 5810 5809 5807 5805 5802 5800 5797 5795
5817 5820 5822 5825 5827 5829 5831 5832 5832 5832 5833 5833 5833 5832 5830 5829 5828 5826 5825 5824 5822 5820 5819 5817 5816 5815 5814 5813 5811 5810 5808 5807 5805 5804 5802 5800 5798 5796 5794 5791 5788 5785 5782
5813 5815 5816 5818 5820 5822 5824 5824 5825 5826 5826 5826 5825 5825 5823 5822 5820 5818 5816 5814 5813 5811 5810 5809 5807 5806 5804 5803 5802 5800 5799 5797 5795 5793 5791 5789 5787 5784 5782 5779 5776 5773 5769
5807 5809 5811 5812 5814 5815 5816 5817 5818 5818 5818 5817 5816 5816 5815 5813 5811 5809 5807 5805 5804 5802 5800 5799 5798 5796 5794 5793 5791 5789 5787 5786 5783 5781 5779 5777 5774 5772 5769 5766 5762 5759 5755
5801 5803 5804 5806 5807 5808 5808 5809 5809 5809 5809 5808 5807 5807 5805 5804 5802 5800 5798 5796 5794 5792 5790 5788 5786 5785 5784 5782 5779 5777 5776 5773 5771 5769 5766 5763 5761 5758 5755 5751 5748 5744 5740
5794 5795 5796 5798 5798 5799 5800 5800 5800 5800 5800 5799 5798 5796 5795 5793 5791 5789 5787 5785 5783 5781 5779 5777 5775 5773 5772 5769 5766 5764 5762 5760 5758 5755 5752 5750 5747 5744 5740 5736 5732 5728 5724
5786 5787 5788 5789 5790 5790 5790 5790 5790 5790 5790 5788 5787 5785 5783 5782 5780 5778 5776 5774 5772 5770 5768 5765 5763 5761 5759 5756 5754 5751 5749 5747 5744 5741 5738 5735 5731 5728 5724 5720 5716 5712 5707
5777 5778 5779 5779 5779 5780 5780 5780 5780 5779 5778 5777 5776 5774 5772 5770 5768 5766 5764 5762 5759 5757 5755 5753 5750 5748 5745 5743 5741 5738 5735 5732 5730 5726 5723 5719 5715 5712 5708 5704 5700 5696 5691
5768 5769 5769 5769 5769 5769 5769 5769 5768 5767 5766 5765 5764 5762 5760 5758 5756 5754 5751 5749 5747 5744 5742 5740 5737 5734 5732 5729 5726 5723 5720 5717 5714 5710 5707 5703 5699 5695 5691 5688 5684 5679 5675
5759 5759 5759 5759 5759 5758 5758 5758 5757 5756 5755 5754 5753 5751 5749 5747 5745 5742 5740 5737 5735 5732 5730 5727 5724 5721 5718 5715 5712 5709 5705 5701 5698 5694 5690 5686 5682 5678 5675 5671 5667 5664 5661
5749 5749 5749 5749 5749 5749 5748 5748 5747 5746 5745 5744 5742 5740 5738 5736 5733 5731 5729 5726 5723 5721 5718 5714 5711 5708 5705 5701 5697 5693 5689 5685 5681 5677 5673 5669 5665 5662 5659 5656 5653 5651 5648
5741 5741 5740 5740 5740 5740 5739 5738 5737 5736 5735 5734 5732 5731 5729 5726 5723 5721 5718 5715 5712 5709 5705 5702 5698 5695 5691 5686 5682 5678 5673 5669 5664 5660 5656 5653 5649 5647 5644 5642 5641 5639 5637
5733 5733 5732 5732 5732 5731 5731 5730 5729 5728 5726 5725 5723 5721 5719 5716 5714 5711 5708 5705 5701 5697 5694 5689 5685 5681 5676 5672 5667 5662 5658 5654 5650 5646 5642 5639 5636 5634 5632 5631 5630 5629 5628
5726 5726 5725 5725 5724 5724 5723 5722 5721 5720 5718 5717 5715 5712 5710 5708 5705 5702 5698 5695 5691 5686 5682 5677 5672 5667 5662 5657 5652 5648 5644 5640 5636 5633 5629 5627 5625 5624 5623 5623 5622 5621 5621
5721 5720 5720 5719 5718 5718 5717 5716 5714 5713 5711 5709 5707 5705 5703 5700 5697 5693 5689 5685 5681 5676 5671 5665 5660 5654 5649 5644 5639 5635 5632 5628 5625 5623 5620 5619 5618 5617 5616 5616 5616 5616 5615
5716 5715 5714 5714 5713 5712 5711 5710 5708 5706 5705 5703 5701 5698 5696 5693 5689 5685 5681 5676 5671 5666 5660 5654 5648 5643 5638 5633 5629 5626 5623 5620 5618 5616 5615 5614 5613 5613 5613 5613 5612 5612 5612
5712 5711 5710 5709 5708 5707 5705 5704 5702 5701 5699 5697 5695 5693 5690 5686 5682 5678 5674 5669 5664 5658 5652 5646 5641 5635 5631 5626 5623 5620 5618 5616 5615 5614 5613 5612 5612 5612 5612 5611 5611 5611 5611
5708 5707 5706 5705 5704 5702 5701 5699 5698 5696 5694 5692 5690 5687 5684 5680 5676 5672 5667 5662 5657 5651 5646 5640 5635 5631 5627 5623 5620 5618 5617 5615 5614 5614 5613 5613 5613 5613 5612 5612 5612 5612 5611
5705 5704 5703 5701 5700 5698 5697 5695 5694 5692 5690 5688 5685 5682 5679 5675 5671 5667 5662 5657 5652 5647 5642 5637 5633 5629 5626 5623 5620 5619 5618 5616 5616 5616 5615 5615 5615 5615 5614 5614 5614 5613 5612
5703 5701 5700 5698 5696 5694 5693 5691 5690 5688 5686 5684 5681 5678 5675 5671 5667 5663 5658 5653 5649 5645 5640 5636 5633 5630 5627 5624 5623 5622 5621 5620 5619 5619 5618 5618 5618 5617 5617 5616 5615 5615 5613